Lima, OH

7:28 PM EST on December 09, 2016 (GMT -0500)
Lima Allen County

Weather History for KAOH - May, 2014

Change the Weather History Date:

Saturday, May 17, 2014

  Actual Average (KFDY) Record (KFDY)
Temperature  
Mean Temperature 49 °F -  
Max Temperature 55 °F 71 °F 90 °F (1962)
Min Temperature 44 °F 49 °F 33 °F (1973)
Degree Days  
Heating Degree Days 16    
Moisture  
Dew Point 40 °F    
Average Humidity 76    
Maximum Humidity 93    
Minimum Humidity 49    
Precipitation  
Precipitation 0.02 in - - ()
Sea Level Pressure  
Sea Level Pressure 30.11 in    
Wind  
Wind Speed 6 mph (WNW)    
Max Wind Speed 15 mph    
Max Gust Speed 23 mph    
Visibility 10 miles    
Events Rain    
Averages and records for this station are not official NWS values.
T = Trace of Precipitation, MM = Missing Value Source: NWS Daily Summary

Daily Weather History Graph

Daily Weather History Graph

Search for Another Location

Airport or City:

Trip Planner

Search our weather history database for the weather conditions in past years. The results will help you decide how hot, cold, wet, or windy it might be!

Date:

Astronomy

May. 17, 2014 Rise Set
Actual Time 6:17 AM EDT 8:48 PM EDT
Civil Twilight 5:45 AM EDT 9:19 PM EDT
Nautical Twilight 5:07 AM EDT 9:58 PM EDT
Astronomical Twilight 4:23 AM EDT 10:42 PM EDT
Moon 11:48 PM EDT (5/17) 8:59 AM EDT (5/17)
Length of Visible Light 15h 33m
Length of Day
14h 31m
Waning Gibbous, 89% of the Moon is Illuminated
May 17
Waning Gibbous
May 21
Last Quarter
May 28
New
Jun 5
First Quarter
Jun 13
Full

Hourly Weather History & Observations

Time (EDT) Temp. Windchill Dew Point Humidity Pressure Visibility Wind Dir Wind Speed Gust Speed Precip Events Conditions
12:48 AM 44.6 °F 43.1 °F 39.2 °F 81% 30.03 in 10.0 mi SW 3.5 mph - N/A   Overcast
12:53 AM 45.0 °F 42.6 °F 39.9 °F 82% 30.04 in 10.0 mi SW 4.6 mph - N/A   Overcast
1:53 AM 45.0 °F - 39.9 °F 82% 30.03 in 10.0 mi Calm Calm - 0.00 in   Overcast
2:26 AM 46.0 °F 42.5 °F 42.1 °F 86% 30.02 in 7.0 mi WNW 6.9 mph - 0.00 in Rain Light Rain
2:53 AM 45.0 °F 43.5 °F 42.1 °F 90% 30.02 in 10.0 mi NNW 3.5 mph - 0.01 in Rain Light Rain
3:17 AM 46.0 °F 43.1 °F 42.1 °F 86% 30.02 in 10.0 mi WNW 5.8 mph - 0.00 in   Overcast
3:53 AM 46.0 °F 43.1 °F 42.1 °F 86% 30.02 in 10.0 mi NW 5.8 mph - 0.00 in   Overcast
4:20 AM 45.0 °F 42.6 °F 41.0 °F 86% 30.02 in 10.0 mi NNW 4.6 mph - N/A   Mostly Cloudy
4:41 AM 45.0 °F 41.8 °F 42.1 °F 90% 30.03 in 10.0 mi NW 5.8 mph - N/A   Overcast
4:53 AM 45.0 °F 41.8 °F 42.1 °F 90% 30.04 in 10.0 mi NNW 5.8 mph - N/A   Overcast
5:26 AM 44.1 °F 39.5 °F 41.0 °F 89% 30.04 in 10.0 mi NW 8.1 mph - 0.00 in Rain Light Rain
5:53 AM 44.1 °F 42.5 °F 42.1 °F 93% 30.05 in 7.0 mi NW 3.5 mph - 0.01 in Rain Light Rain
6:29 AM 45.0 °F 41.2 °F 41.0 °F 86% 30.06 in 10.0 mi NW 6.9 mph - 0.00 in   Overcast
6:53 AM 45.0 °F 42.6 °F 42.1 °F 90% 30.07 in 10.0 mi West 4.6 mph - 0.00 in   Overcast
7:34 AM 45.0 °F 42.6 °F 41.0 °F 86% 30.07 in 10.0 mi WNW 4.6 mph - N/A   Overcast
7:53 AM 45.0 °F 43.5 °F 41.0 °F 86% 30.09 in 10.0 mi West 3.5 mph - N/A   Overcast
8:13 AM 46.0 °F 42.5 °F 41.0 °F 83% 30.09 in 10.0 mi WNW 6.9 mph - N/A   Overcast
8:43 AM 45.0 °F 39.3 °F 41.0 °F 86% 30.10 in 10.0 mi NW 11.5 mph - N/A   Overcast
8:53 AM 45.0 °F 39.3 °F 39.9 °F 82% 30.11 in 10.0 mi WNW 11.5 mph - N/A   Overcast
9:53 AM 46.0 °F 41.4 °F 41.0 °F 83% 30.13 in 10.0 mi WNW 9.2 mph - N/A   Overcast
10:53 AM 48.0 °F - 39.9 °F 74% 30.14 in 10.0 mi West 9.2 mph - N/A   Mostly Cloudy
11:43 AM 48.9 °F - 39.0 °F 69% 30.13 in 10.0 mi West 10.4 mph - N/A   Mostly Cloudy
11:53 AM 50.0 °F - 39.0 °F 66% 30.15 in 10.0 mi West 12.7 mph - N/A   Mostly Cloudy
12:53 PM 51.1 °F - 39.0 °F 63% 30.15 in 10.0 mi NW 15.0 mph 19.6 mph N/A   Mostly Cloudy
1:53 PM 51.1 °F - 37.0 °F 59% 30.16 in 10.0 mi NW 11.5 mph - N/A   Overcast
2:53 PM 53.1 °F - 36.0 °F 52% 30.15 in 10.0 mi NW 11.5 mph - N/A   Mostly Cloudy
3:53 PM 54.0 °F - 35.1 °F 49% 30.15 in 10.0 mi West 11.5 mph - N/A   Mostly Cloudy
4:53 PM 51.1 °F - 37.9 °F 61% 30.17 in 10.0 mi WSW 9.2 mph - 0.00 in Rain Light Rain
5:53 PM 53.1 °F - 36.0 °F 52% 30.17 in 10.0 mi West 13.8 mph 23.0 mph 0.00 in   Partly Cloudy
6:53 PM 53.1 °F - 36.0 °F 52% 30.18 in 10.0 mi NW 15.0 mph - N/A   Scattered Clouds
7:53 PM 52.0 °F - 37.0 °F 57% 30.18 in 10.0 mi WNW 9.2 mph - N/A   Clear
8:53 PM 48.0 °F - 37.0 °F 66% 30.20 in 10.0 mi WNW 5.8 mph - N/A   Clear
9:53 PM 48.0 °F - 37.0 °F 66% 30.22 in 10.0 mi Calm Calm - N/A   Clear
10:53 PM 46.0 °F 44.8 °F 36.0 °F 68% 30.23 in 10.0 mi SW 3.5 mph - N/A   Clear
11:53 PM 45.0 °F 42.6 °F 37.0 °F 74% 30.24 in 10.0 mi SW 4.6 mph - N/A   Clear